カタログに戻る

STARLINK-1331

運用中通信VLEO
NORAD 45578·PAYLOAD·🇺🇸 United States

打ち上げ Apr 22, 2020 から Cape Canaveral Space Force Station

Loading…

次のパス (今後24時間)

TLE

最新Source: CelesTrak SupGP

元期: Sep 14, 2026, 21:14 UTC

1 45578C 20025AZ  26257.88520833  .00114440  00000+0  57461-3 0  2573
2 45578  53.0402 216.4287 0004964  63.6677 164.6195 15.80943722    17

AllMySatでSTARLINK-1331をリアルタイム追跡

Download on the App Store